Lid_Strength_Index
1 1 1 1 1 0 0 1 2 2 3 4 5 6 5 4 3 3 2 2 2 2 1 2 2 1 1 1 1 1 2 2 4 3 3 2 2 3 3 2 2 1 1
2 2 3 2 2 2 2 1 2 4 5 5 6 5 4 3 2 2 2 2 2 2 2 1 1 2 1 1 2 1 2 2 4 5 3 4 3 3 3 3 2 3 1
3 2 2 3 3 4 4 4 5 5 6 5 4 4 3 2 2 2 2 3 3 2 2 2 2 2 2 2 2 2 2 3 3 5 5 5 5 5 5 3 3 4 2
5 4 3 3 5 7 7 5 5 5 5 4 4 3 3 3 3 2 2 2 2 2 1 1 1 2 3 3 3 2 3 4 4 5 7 8 7 6 6 7 7 5 3
6 5 5 6 7 7 6 5 5 5 4 4 4 3 3 4 6 4 2 2 2 1 1 1 1 4 5 5 5 4 4 5 5 7 9 9 9 9 9 7 7 6 4
5 6 6 6 6 5 5 5 4 5 4 4 4 4 4 6 10 9 6 2 2 2 1 1 1 2 4 5 5 5 5 5 6 7 9 10 9 9 8 8 7 7 7
5 5 4 5 5 5 5 5 5 4 4 4 4 4 5 6 10 10 9 2 2 2 2 2 3 3 4 5 5 4 3 4 5 5 9 9 9 8 8 7 7 7 6
5 5 5 5 5 5 5 5 5 5 4 4 4 4 5 8 11 11 10 3 2 2 2 4 4 3 6 8 5 2 1 2 3 5 7 8 8 7 6 6 6 5 5
7 6 6 5 5 5 5 5 5 4 4 4 4 4 5 8 12 11 8 3 3 3 3 4 6 6 10 10 4 3 2 2 4 6 7 8 9 8 7 6 7 7 7
6 6 5 5 5 5 5 5 4 4 5 5 6 6 9 7 11 10 9 5 4 5 4 4 10 10 10 10 6 4 4 5 4 5 5 5 6 6 6 6 6 8 7
5 5 5 5 5 5 5 5 4 5 5 6 7 7 7 9 8 11 10 7 8 6 7 6 6 10 10 10 10 6 7 8 5 6 9 6 6 5 6 5 5 6 7
6 6 6 6 6 5 5 5 5 5 5 6 6 6 6 6 11 11 11 11 10 7 8 8 7 11 10 10 8 10 10 7 5 7 9 9 9 8 7 5 5 5 5
7 7 6 6 5 5 5 6 6 6 6 5 5 6 7 7 7 10 11 10 10 7 7 9 9 10 9 7 9 9 8 6 6 7 9 10 10 9 6 5 6 5 5
7 7 7 7 7 6 6 6 6 5 5 5 5 6 6 8 9 9 7 6 7 7 7 6 7 8 8 7 6 6 6 7 8 8 8 8 9 9 9 7 7 7 7
7 7 7 7 7 8 9 8 9 9 9 7 8 8 8 9 11 12 11 9 9 9 9 6 7 7 7 7 8 7 7 7 7 7 8 8 9 10 10 8 8 8 8
8 8 8 8 8 9 9 10 12 12 12 12 13 11 10 12 12 11 11 11 11 11 8 8 8 8 9 9 10 10 9 8 6 7 8 9 9 9 10 9 9 9 9
7 7 7 7 6 7 8 9 10 11 11 12 12 12 12 12 11 11 11 11 11 10 9 9 9 9 10 10 11 10 10 9 7 6 7 8 8 8 8 9 9 9 10
7 9 6 6 6 6 6 6 7 8 9 9 11 11 11 11 11 11 11 9 8 9 9 10 10 10 10 10 11 10 10 9 8 8 7 8 8 8 8 8 9 10 10
6 6 6 6 6 7 6 7 7 8 8 8 7 9 10 11 11 10 10 8 9 9 10 10 10 10 10 10 10 10 9 10 9 8 9 7 8 8 8 8 8 11 10
8 10 8 7 7 7 7 7 8 8 8 9 9 8 7 7 8 8 8 8 9 9 10 10 10 10 11 11 10 10 10 10 10 9 8 8 7 8 8 8 9 9 9
7 7 9 7 7 7 8 8 8 8 8 9 9 10 13 8 8 8 8 9 9 9 9 10 10 11 11 11 11 11 10 10 10 9 9 8 8 7 7 7 8 9 9
7 7 7 8 8 8 8 8 8 8 8 8 8 9 12 8 8 8 8 9 9 9 9 9 10 11 11 11 11 11 11 11 10 10 8 8 8 8 7 7 7 8 9
7 8 8 8 8 10 8 8 8 8 8 8 8 8 8 8 8 8 9 8 9 9 9 9 9 10 10 10 11 11 12 12 10 9 8 8 8 8 8 7 7 8 9
7 8 8 8 8 8 8 8 8 10 8 8 8 8 8 8 8 8 8 8 8 8 9 9 9 10 10 10 10 10 11 12 10 10 8 8 8 9 8 8 7 7 8
8 8 8 8 8 8 7 7 7 7 7 8 8 8 8 8 8 8 8 8 8 8 9 8 9 9 9 11 11 11 13 14 11 12 8 7 8 9 8 8 8 7 9
7 7 7 7 7 7 7 7 7 7 8 8 8 8 8 9 9 9 8 8 8 8 8 8 9 9 10 10 11 13 13 13 12 13 9 7 8 8 9 8 8 7 9